Location: East Guldeford
(50.9500°N, 0.7500°E)
Time: 09:29:15
(UTC+00:00)

RESURS DK-1 - Pass Details

Date: 12 May 2021
Orbit: 553 x 564 km, 69.9° (Epoch: 16 June)

Event Time Altitude Azimuth Distance (km) Brightness Sun altitude
Rises 22:53:45 0° 330° (NNW) 2,767 7.3 -19.4°
Reaches altitude 10° 22:56:00 10° 335° (NNW) 1,868 6.2 -19.5°
Maximum altitude 23:00:08 57° 54° (NE) 667 2.8 -19.7°
Enters shadow 23:01:26 38° 113° (ESE) 866 3.0 -19.7°
